| time (UTC) | temp F | wind direction | speed MPH | gust MPH | rain 1hr in | rain 24hr in | rain mn in | humidity % | barometer mb |
| 20260506090015 | 62 | 207 | 1.0 | 5.0 | 0.01 | 0.01 | 0.01 | 87 | 1008.5 |
| 20260506084513 | 63 | 207 | 3.0 | 6.0 | 0.00 | 0.00 | 0.00 | 86 | 1008.6 |
| 20260506083010 | 64 | 207 | 4.0 | 8.0 | 0.00 | 0.00 | 0.00 | 85 | 1008.5 |
| 20260506081506 | 65 | 207 | 5.0 | 10.0 | 0.00 | 0.00 | 0.00 | 83 | 1008.4 |
| 20260506073108 | 66 | 207 | 5.0 | 14.0 | 0.00 | 0.00 | 0.00 | 83 | 1008.4 |
| 20260506071554 | 67 | 207 | 5.0 | 10.0 | 0.00 | 0.00 | 0.00 | 83 | 1008.3 |
| 20260506061538 | 75 | 207 | 0.0 | 0.0 | 0.00 | 0.00 | 0.00 | 88 | 1008.0 |
| 20260506044538 | 75 | 207 | 0.0 | 0.0 | 0.00 | 0.00 | 0.00 | 89 | 1007.4 |
| 20260506043028 | 75 | 207 | 0.0 | 0.0 | 0.00 | 0.00 | 0.00 | 88 | 1007.3 |
| 20260506041527 | 75 | 207 | 0.0 | 0.0 | 0.00 | 0.00 | 0.00 | 88 | 1006.8 |
| 20260506040048 | 75 | 207 | 0.0 | 0.0 | 0.00 | 0.00 | 0.00 | 88 | 1007.0 |
| 20260506034527 | 75 | 207 | 0.0 | 0.0 | 0.00 | 0.00 | 0.00 | 87 | 1006.8 |
| 20260506033025 | 76 | 207 | 0.0 | 0.0 | 0.00 | 0.00 | 0.00 | 86 | 1006.3 |
| 20260506031626 | 76 | 207 | 0.0 | 0.0 | 0.00 | 0.00 | 0.00 | 85 | 1006.0 |
| 20260506030024 | 76 | 207 | 0.0 | 0.0 | 0.00 | 0.00 | 0.00 | 85 | 1005.6 |
| 20260506024526 | 76 | 207 | 0.0 | 0.0 | 0.00 | 0.00 | 0.00 | 84 | 1005.5 |
| 20260506023023 | 77 | 207 | 0.0 | 0.0 | 0.00 | 0.00 | 0.00 | 84 | 1005.3 |
| 20260506021522 | 77 | 207 | 0.0 | 0.0 | 0.00 | 0.00 | 0.00 | 83 | 1005.1 |
| 20260506020022 | 77 | 207 | 0.0 | 0.0 | 0.00 | 0.00 | 0.00 | 83 | 1005.0 |
| 20260506014522 | 78 | 207 | 0.0 | 0.0 | 0.00 | 0.00 | 0.00 | 81 | 1004.8 |
| 20260506013021 | 78 | 207 | 0.0 | 0.0 | 0.00 | 0.00 | 0.00 | 81 | 1005.0 |
| 20260506011520 | 79 | 207 | 0.0 | 0.0 | 0.00 | 0.00 | 0.00 | 80 | 1005.1 |
| 20260506010019 | 80 | 207 | 0.0 | 1.0 | 0.00 | 0.00 | 0.00 | 78 | 1004.7 |
| 20260506004524 | 80 | 207 | 0.0 | 1.0 | 0.00 | 0.00 | 0.00 | 77 | 1004.5 |
| 20260506003018 | 81 | 207 | 0.0 | 2.0 | 0.00 | 0.00 | 0.00 | 76 | 1004.6 |
| 20260506001517 | 81 | 207 | 0.0 | 3.0 | 0.00 | 0.00 | 0.00 | 76 | 1004.5 |
| 20260506000018 | 82 | 207 | 0.0 | 2.0 | 0.00 | 0.00 | 0.00 | 75 | 1004.4 |
| 20260505234516 | 82 | 207 | 0.0 | 4.0 | 0.00 | 0.00 | 0.00 | 74 | 1004.4 |
| 20260505233017 | 82 | 207 | 0.0 | 2.0 | 0.00 | 0.00 | 0.00 | 73 | 1004.3 |
| 20260505231518 | 83 | 207 | 0.0 | 3.0 | 0.00 | 0.00 | 0.00 | 73 | 1004.3 |
| 20260505230022 | 83 | 207 | 1.0 | 5.0 | 0.00 | 0.00 | 0.00 | 71 | 1004.2 |
| 20260505224512 | 83 | 207 | 0.0 | 3.0 | 0.00 | 0.00 | 0.00 | 71 | 1004.3 |
| 20260505223015 | 83 | 207 | 1.0 | 4.0 | 0.00 | 0.00 | 0.00 | 70 | 1004.1 |
| 20260505221511 | 84 | 207 | 0.0 | 6.0 | 0.00 | 0.00 | 0.00 | 70 | 1004.1 |
| 20260505220009 | 84 | 207 | 1.0 | 5.0 | 0.00 | 0.00 | 0.00 | 69 | 1004.2 |
| 20260505214509 | 84 | 207 | 1.0 | 4.0 | 0.00 | 0.00 | 0.00 | 70 | 1004.3 |
| 20260505213008 | 84 | 207 | 1.0 | 5.0 | 0.00 | 0.00 | 0.00 | 70 | 1004.3 |
| 20260505211506 | 84 | 207 | 0.0 | 5.0 | 0.00 | 0.00 | 0.00 | 70 | 1004.4 |
| 20260505210003 | 84 | 207 | 1.0 | 5.0 | 0.00 | 0.00 | 0.00 | 70 | 1004.8 |
| 20260505204605 | 83 | 207 | 0.0 | 4.0 | 0.00 | 0.00 | 0.00 | 72 | 1005.0 |
| 20260505203100 | 83 | 207 | 1.0 | 4.0 | 0.00 | 0.00 | 0.00 | 72 | 1005.2 |
| 20260505201600 | 83 | 206 | 1.0 | 5.0 | 0.00 | 0.00 | 0.00 | 71 | 1005.2 |
| 20260505200059 | 82 | 207 | 1.0 | 6.0 | 0.00 | 0.00 | 0.00 | 72 | 1005.1 |
| 20260505194608 | 82 | 207 | 1.0 | 5.0 | 0.00 | 0.00 | 0.00 | 71 | 1005.2 |
| 20260505193052 | 82 | 207 | 0.0 | 5.0 | 0.00 | 0.00 | 0.00 | 72 | 1005.4 |
| 20260505191550 | 82 | 207 | 2.0 | 6.0 | 0.00 | 0.00 | 0.00 | 73 | 1005.5 |
| 20260505190047 | 81 | 207 | 3.0 | 7.0 | 0.00 | 0.00 | 0.00 | 73 | 1005.6 |
| 20260505184546 | 80 | 207 | 2.0 | 8.0 | 0.00 | 0.00 | 0.00 | 74 | 1005.7 |
| 20260505183044 | 80 | 207 | 1.0 | 6.0 | 0.00 | 0.00 | 0.00 | 75 | 1005.6 |
| 20260505181546 | 79 | 207 | 2.0 | 6.0 | 0.00 | 0.00 | 0.00 | 76 | 1005.8 |
| 20260505180041 | 79 | 207 | 3.0 | 6.0 | 0.00 | 0.00 | 0.00 | 75 | 1006.0 |
| 20260505174541 | 79 | 207 | 1.0 | 6.0 | 0.00 | 0.00 | 0.00 | 77 | 1006.3 |
| 20260505173037 | 79 | 207 | 1.0 | 6.0 | 0.00 | 0.00 | 0.00 | 77 | 1006.2 |
| 20260505171536 | 78 | 207 | 2.0 | 6.0 | 0.00 | 0.00 | 0.00 | 77 | 1006.1 |
| 20260505170131 | 78 | 207 | 2.0 | 6.0 | 0.00 | 0.00 | 0.00 | 78 | 1006.1 |
| 20260505164529 | 77 | 207 | 3.0 | 6.0 | 0.00 | 0.00 | 0.00 | 79 | 1006.0 |
| 20260505163027 | 76 | 207 | 3.0 | 6.0 | 0.00 | 0.00 | 0.00 | 79 | 1006.4 |
| 20260505161525 | 76 | 207 | 2.0 | 5.0 | 0.00 | 0.00 | 0.00 | 80 | 1006.4 |
| 20260505153019 | 75 | 207 | 1.0 | 6.0 | 0.00 | 0.00 | 0.00 | 81 | 1006.3 |
| 20260505151519 | 74 | 207 | 2.0 | 6.0 | 0.00 | 0.00 | 0.00 | 82 | 1006.1 |
| 20260505124502 | 71 | 207 | 0.0 | 3.0 | 0.00 | 0.00 | 0.00 | 88 | 1005.6 |
| 20260505123001 | 71 | 207 | 0.0 | 3.0 | 0.00 | 0.00 | 0.00 | 88 | 1005.8 |
| 20260505121600 | 71 | 207 | 0.0 | 4.0 | 0.00 | 0.00 | 0.00 | 88 | 1005.8 |
| 20260505120121 | 71 | 207 | 1.0 | 4.0 | 0.00 | 0.00 | 0.00 | 88 | 1005.7 |
| 20260505114602 | 70 | 207 | 1.0 | 4.0 | 0.00 | 0.00 | 0.00 | 88 | 1005.7 |
| 20260505113106 | 70 | 207 | 1.0 | 4.0 | 0.00 | 0.00 | 0.00 | 88 | 1005.3 |
| 20260505111558 | 70 | 207 | 1.0 | 6.0 | 0.00 | 0.00 | 0.00 | 88 | 1005.4 |
| 20260505110116 | 70 | 207 | 0.0 | 5.0 | 0.00 | 0.00 | 0.00 | 88 | 1005.3 |
| 20260505101550 | 70 | 207 | 1.0 | 4.0 | 0.00 | 0.00 | 0.00 | 87 | 1005.6 |
| 20260505100049 | 70 | 207 | 1.0 | 5.0 | 0.00 | 0.00 | 0.00 | 86 | 1005.8 |
| 20260505094550 | 70 | 207 | 0.0 | 4.0 | 0.00 | 0.00 | 0.00 | 86 | 1005.7 |
| 20260505093049 | 70 | 207 | 2.0 | 5.0 | 0.00 | 0.00 | 0.00 | 86 | 1005.4 |
| 20260505091548 | 70 | 207 | 1.0 | 5.0 | 0.00 | 0.00 | 0.00 | 86 | 1005.3 |